| time (UTC) | temp C | wind direction | speed KPH | gust KPH | rain 1hr cm | rain 24hr cm | rain mn cm | humidity % | barometer mb |
| 20260504130539 | 12 | 267 | 1.6 | 4.8 | 0.00 | 0.00 | 0.00 | 76 | 1007.4 |
| 20260504110427 | 6 | 38 | 0.0 | 0.0 | 0.00 | 0.00 | 0.00 | 87 | 1007.5 |
| 20260504100343 | 7 | 347 | 0.0 | 0.0 | 0.00 | 0.00 | 0.00 | 82 | 1007.8 |
| 20260504081737 | 8 | 329 | 0.0 | 3.2 | 0.00 | 0.00 | 0.00 | 77 | 1007.9 |
| 20260504081233 | 8 | 349 | 0.0 | 1.6 | 0.00 | 0.00 | 0.00 | 78 | 1007.8 |
| 20260504080730 | 8 | 320 | 1.6 | 1.6 | 0.00 | 0.00 | 0.00 | 79 | 1008.1 |
| 20260504080226 | 8 | 307 | 1.6 | 3.2 | 0.00 | 0.00 | 0.00 | 79 | 1007.8 |
| 20260504070153 | 9 | 357 | 0.0 | 0.0 | 0.00 | 0.00 | 0.00 | 79 | 1009.0 |
| 20260504060114 | 9 | 346 | 0.0 | 0.0 | 0.00 | 0.00 | 0.00 | 82 | 1009.6 |
| 20260504050542 | 10 | 340 | 1.6 | 3.2 | 0.00 | 0.00 | 0.00 | 81 | 1010.2 |
| 20260504045536 | 10 | 317 | 1.6 | 3.2 | 0.00 | 0.30 | 0.30 | 80 | 1010.0 |
| 20260504045032 | 10 | 292 | 1.6 | 3.2 | 0.00 | 0.30 | 0.30 | 79 | 1010.1 |
| 20260504044529 | 10 | 304 | 1.6 | 3.2 | 0.00 | 0.30 | 0.30 | 79 | 1010.0 |
| 20260504044026 | 10 | 326 | 1.6 | 4.8 | 0.00 | 0.30 | 0.30 | 79 | 1010.2 |
| 20260504043523 | 10 | 324 | 1.6 | 3.2 | 0.00 | 0.30 | 0.30 | 78 | 1009.9 |
| 20260504043020 | 11 | 278 | 1.6 | 3.2 | 0.00 | 0.30 | 0.30 | 78 | 1009.9 |
| 20260504042517 | 11 | 331 | 1.6 | 4.8 | 0.00 | 0.30 | 0.30 | 77 | 1009.9 |
| 20260504042014 | 11 | 284 | 3.2 | 4.8 | 0.00 | 0.30 | 0.30 | 77 | 1009.8 |
| 20260504041510 | 11 | 309 | 1.6 | 3.2 | 0.00 | 0.30 | 0.30 | 77 | 1009.9 |
| 20260504041006 | 11 | 342 | 1.6 | 3.2 | 0.00 | 0.30 | 0.30 | 76 | 1009.9 |
| 20260504040504 | 11 | 286 | 1.6 | 3.2 | 0.00 | 0.30 | 0.30 | 76 | 1009.8 |
| 20260504040000 | 11 | 319 | 1.6 | 4.8 | 0.00 | 0.30 | 0.30 | 75 | 1009.9 |
| 20260504035457 | 11 | 310 | 3.2 | 4.8 | 0.00 | 0.30 | 0.30 | 75 | 1009.8 |
| 20260504034953 | 11 | 252 | 3.2 | 3.2 | 0.00 | 0.30 | 0.30 | 74 | 1009.6 |
| 20260504034451 | 12 | 326 | 1.6 | 4.8 | 0.00 | 0.30 | 0.30 | 74 | 1009.8 |
| 20260504033948 | 12 | 248 | 3.2 | 3.2 | 0.00 | 0.30 | 0.30 | 74 | 1009.8 |
| 20260504033446 | 12 | 279 | 3.2 | 3.2 | 0.00 | 0.30 | 0.30 | 73 | 1009.9 |
| 20260504032943 | 12 | 310 | 1.6 | 4.8 | 0.00 | 0.30 | 0.30 | 73 | 1009.8 |
| 20260504032440 | 12 | 239 | 3.2 | 3.2 | 0.00 | 0.30 | 0.30 | 72 | 1010.1 |
| 20260504031937 | 12 | 352 | 1.6 | 4.8 | 0.00 | 0.30 | 0.30 | 72 | 1009.8 |
| 20260504031433 | 12 | 316 | 1.6 | 4.8 | 0.00 | 0.30 | 0.30 | 71 | 1009.9 |
| 20260504030930 | 12 | 273 | 3.2 | 4.8 | 0.00 | 0.30 | 0.30 | 71 | 1009.9 |
| 20260504030427 | 12 | 262 | 3.2 | 4.8 | 0.00 | 0.30 | 0.30 | 71 | 1010.0 |
| 20260504025923 | 13 | 251 | 1.6 | 3.2 | 0.00 | 0.30 | 0.30 | 70 | 1010.1 |
| 20260504025420 | 13 | 348 | 1.6 | 4.8 | 0.00 | 0.30 | 0.30 | 69 | 1009.9 |
| 20260504024917 | 13 | 271 | 4.8 | 4.8 | 0.00 | 0.30 | 0.30 | 70 | 1010.1 |
| 20260504024414 | 13 | 263 | 1.6 | 3.2 | 0.00 | 0.30 | 0.30 | 69 | 1010.1 |
| 20260504023911 | 13 | 270 | 1.6 | 8.0 | 0.00 | 0.30 | 0.30 | 69 | 1009.9 |
| 20260504023408 | 13 | 297 | 3.2 | 4.8 | 0.00 | 0.30 | 0.30 | 69 | 1010.0 |
| 20260504022903 | 13 | 324 | 1.6 | 3.2 | 0.00 | 0.30 | 0.30 | 69 | 1009.8 |
| 20260504022400 | 13 | 302 | 3.2 | 3.2 | 0.00 | 0.30 | 0.30 | 68 | 1009.7 |
| 20260504021856 | 13 | 285 | 1.6 | 3.2 | 0.00 | 0.30 | 0.30 | 69 | 1010.0 |
| 20260504021354 | 13 | 295 | 1.6 | 4.8 | 0.00 | 0.30 | 0.30 | 68 | 1010.0 |
| 20260504020851 | 13 | 258 | 1.6 | 3.2 | 0.00 | 0.30 | 0.30 | 67 | 1009.9 |
| 20260504020347 | 13 | 320 | 3.2 | 4.8 | 0.00 | 0.30 | 0.30 | 67 | 1009.9 |
| 20260504015843 | 14 | 261 | 3.2 | 3.2 | 0.00 | 0.30 | 0.30 | 66 | 1009.7 |
| 20260504015340 | 14 | 342 | 3.2 | 3.2 | 0.00 | 0.30 | 0.30 | 67 | 1009.7 |
| 20260504014836 | 14 | 293 | 1.6 | 3.2 | 0.00 | 0.30 | 0.30 | 66 | 1009.9 |
| 20260504014332 | 14 | 314 | 1.6 | 3.2 | 0.00 | 0.30 | 0.30 | 67 | 1009.4 |
| 20260504013830 | 14 | 294 | 1.6 | 3.2 | 0.00 | 0.30 | 0.30 | 66 | 1009.5 |
| 20260504013328 | 15 | 275 | 3.2 | 3.2 | 0.00 | 0.30 | 0.30 | 65 | 1009.7 |
| 20260504012824 | 15 | 289 | 3.2 | 3.2 | 0.00 | 0.30 | 0.30 | 64 | 1009.5 |
| 20260504012322 | 15 | 277 | 3.2 | 4.8 | 0.00 | 0.30 | 0.30 | 63 | 1009.6 |
| 20260504011819 | 15 | 243 | 3.2 | 4.8 | 0.00 | 0.30 | 0.30 | 63 | 1009.6 |
| 20260504011316 | 15 | 321 | 3.2 | 3.2 | 0.00 | 0.30 | 0.30 | 63 | 1009.5 |
| 20260504010811 | 15 | 15 | 3.2 | 4.8 | 0.00 | 0.30 | 0.30 | 63 | 1009.4 |
| 20260504010307 | 15 | 288 | 1.6 | 4.8 | 0.00 | 0.30 | 0.30 | 62 | 1009.4 |
| 20260504005804 | 16 | 11 | 1.6 | 4.8 | 0.00 | 0.30 | 0.30 | 62 | 1009.4 |
| 20260504005301 | 16 | 312 | 1.6 | 3.2 | 0.00 | 0.30 | 0.30 | 61 | 1009.6 |
| 20260504004759 | 16 | 295 | 3.2 | 4.8 | 0.00 | 0.30 | 0.30 | 60 | 1009.5 |
| 20260504004256 | 16 | 325 | 1.6 | 4.8 | 0.00 | 0.30 | 0.30 | 59 | 1009.5 |
| 20260504003752 | 17 | 247 | 3.2 | 4.8 | 0.00 | 0.30 | 0.30 | 57 | 1009.5 |
| 20260504003249 | 17 | 319 | 1.6 | 3.2 | 0.00 | 0.30 | 0.30 | 55 | 1009.5 |
| 20260504002746 | 17 | 324 | 1.6 | 3.2 | 0.00 | 0.30 | 0.30 | 53 | 1009.6 |
| 20260504002242 | 18 | 279 | 1.6 | 3.2 | 0.00 | 0.30 | 0.30 | 51 | 1009.6 |
| 20260504001741 | 18 | 263 | 1.6 | 4.8 | 0.00 | 0.30 | 0.30 | 49 | 1009.6 |
| 20260504001237 | 18 | 285 | 1.6 | 4.8 | 0.00 | 0.30 | 0.30 | 49 | 1009.8 |
| 20260504000734 | 18 | 240 | 1.6 | 4.8 | 0.00 | 0.30 | 0.30 | 48 | 1009.5 |
| 20260504000231 | 18 | 237 | 4.8 | 8.0 | 0.00 | 0.30 | 0.30 | 48 | 1009.4 |
| 20260503235729 | 19 | 248 | 6.4 | 8.0 | 0.00 | 0.30 | 0.30 | 46 | 1009.5 |
| 20260503235226 | 19 | 222 | 4.8 | 9.7 | 0.00 | 0.30 | 0.30 | 45 | 1009.7 |
| 20260503234724 | 19 | 249 | 4.8 | 8.0 | 0.00 | 0.30 | 0.30 | 44 | 1009.6 |
| 20260503234222 | 19 | 12 | 1.6 | 11.3 | 0.00 | 0.30 | 0.30 | 45 | 1009.8 |
| 20260503233718 | 19 | 256 | 3.2 | 4.8 | 0.00 | 0.30 | 0.30 | 47 | 1009.5 |
| 20260503233214 | 20 | 253 | 4.8 | 9.7 | 0.00 | 0.30 | 0.30 | 45 | 1009.6 |
| 20260503232711 | 19 | 232 | 8.0 | 12.9 | 0.00 | 0.30 | 0.30 | 46 | 1009.7 |
| 20260503232208 | 20 | 258 | 4.8 | 11.3 | 0.00 | 0.30 | 0.30 | 45 | 1009.8 |
| 20260503231707 | 20 | 235 | 6.4 | 9.7 | 0.00 | 0.30 | 0.30 | 47 | 1009.6 |
| 20260503231203 | 20 | 30 | 8.0 | 14.5 | 0.00 | 0.30 | 0.30 | 45 | 1009.5 |
| 20260503230659 | 20 | 245 | 4.8 | 12.9 | 0.00 | 0.30 | 0.30 | 45 | 1009.8 |
| 20260503230156 | 20 | 35 | 4.8 | 16.1 | 0.00 | 0.30 | 0.30 | 45 | 1009.8 |
| 20260503225654 | 20 | 70 | 4.8 | 17.7 | 0.00 | 0.30 | 0.30 | 43 | 1009.7 |
| 20260503225154 | 20 | 231 | 9.7 | 14.5 | 0.00 | 0.30 | 0.30 | 45 | 1009.9 |
| 20260503224651 | 20 | 37 | 6.4 | 12.9 | 0.00 | 0.30 | 0.30 | 44 | 1009.7 |
| 20260503224149 | 20 | 288 | 9.7 | 11.3 | 0.00 | 0.30 | 0.30 | 45 | 1010.0 |
| 20260503223647 | 20 | 233 | 9.7 | 12.9 | 0.00 | 0.30 | 0.30 | 44 | 1010.0 |
| 20260503223143 | 20 | 255 | 8.0 | 12.9 | 0.00 | 0.30 | 0.30 | 43 | 1010.0 |
| 20260503222640 | 20 | 132 | 4.8 | 12.9 | 0.00 | 0.30 | 0.30 | 44 | 1010.1 |
| 20260503222138 | 20 | 227 | 3.2 | 16.1 | 0.00 | 0.30 | 0.30 | 42 | 1009.9 |
| 20260503221636 | 20 | 254 | 6.4 | 12.9 | 0.00 | 0.30 | 0.30 | 44 | 1010.1 |
| 20260503221133 | 20 | 302 | 11.3 | 16.1 | 0.00 | 0.30 | 0.30 | 43 | 1010.1 |
| 20260503220630 | 20 | 245 | 9.7 | 14.5 | 0.00 | 0.30 | 0.30 | 42 | 1009.8 |
| 20260503220127 | 20 | 236 | 8.0 | 14.5 | 0.00 | 0.30 | 0.30 | 44 | 1010.2 |
| 20260503215624 | 21 | 234 | 8.0 | 12.9 | 0.00 | 0.30 | 0.30 | 43 | 1009.9 |
| 20260503215120 | 20 | 243 | 6.4 | 14.5 | 0.00 | 0.30 | 0.30 | 45 | 1010.1 |
| 20260503214619 | 20 | 254 | 8.0 | 17.7 | 0.00 | 0.30 | 0.30 | 42 | 1010.0 |
| 20260503214115 | 21 | 256 | 11.3 | 22.5 | 0.00 | 0.30 | 0.30 | 43 | 1010.1 |
| 20260503213614 | 21 | 255 | 6.4 | 14.5 | 0.00 | 0.30 | 0.30 | 45 | 1010.2 |
| 20260503213110 | 21 | 164 | 9.7 | 14.5 | 0.00 | 0.30 | 0.30 | 46 | 1010.2 |
| 20260503212608 | 21 | 233 | 6.4 | 14.5 | 0.00 | 0.30 | 0.30 | 45 | 1010.1 |
| 20260503212105 | 21 | 217 | 6.4 | 14.5 | 0.00 | 0.30 | 0.30 | 42 | 1010.1 |
| 20260503211602 | 20 | 260 | 9.7 | 14.5 | 0.00 | 0.30 | 0.30 | 44 | 1010.2 |
| 20260503211057 | 19 | 351 | 4.8 | 8.0 | 0.00 | 0.30 | 0.30 | 48 | 1010.4 |
| 20260503210554 | 20 | 137 | 4.8 | 11.3 | 0.00 | 0.30 | 0.30 | 46 | 1010.4 |
| 20260503210050 | 20 | 213 | 6.4 | 11.3 | 0.00 | 0.30 | 0.30 | 45 | 1010.4 |
| 20260503205547 | 20 | 288 | 4.8 | 11.3 | 0.00 | 0.30 | 0.30 | 47 | 1010.5 |
| 20260503205043 | 20 | 217 | 4.8 | 11.3 | 0.00 | 0.30 | 0.30 | 45 | 1010.7 |
| 20260503204540 | 20 | 335 | 4.8 | 12.9 | 0.00 | 0.30 | 0.30 | 51 | 1010.9 |
| 20260503204037 | 20 | 193 | 8.0 | 17.7 | 0.00 | 0.30 | 0.30 | 45 | 1011.0 |
| 20260503203535 | 20 | 319 | 4.8 | 11.3 | 0.00 | 0.30 | 0.30 | 45 | 1011.1 |
| 20260503203032 | 20 | 213 | 4.8 | 20.9 | 0.00 | 0.30 | 0.30 | 44 | 1011.4 |
| 20260503202530 | 18 | 216 | 6.4 | 11.3 | 0.00 | 0.30 | 0.30 | 50 | 1011.2 |
| 20260503202027 | 18 | 174 | 4.8 | 11.3 | 0.00 | 0.30 | 0.30 | 48 | 1011.7 |
| 20260503201525 | 18 | 274 | 8.0 | 14.5 | 0.00 | 0.30 | 0.30 | 47 | 1011.7 |
| 20260503201022 | 17 | 295 | 8.0 | 11.3 | 0.00 | 0.30 | 0.30 | 49 | 1011.7 |
| 20260503200518 | 17 | 229 | 4.8 | 12.9 | 0.00 | 0.30 | 0.30 | 51 | 1012.0 |
| 20260503200015 | 17 | 104 | 8.0 | 16.1 | 0.00 | 0.30 | 0.30 | 46 | 1012.0 |
| 20260503195513 | 17 | 201 | 8.0 | 14.5 | 0.00 | 0.30 | 0.30 | 47 | 1012.0 |
| 20260503195009 | 17 | 1 | 3.2 | 14.5 | 0.00 | 0.30 | 0.30 | 47 | 1012.1 |
| 20260503194507 | 18 | 240 | 9.7 | 20.9 | 0.00 | 0.30 | 0.30 | 46 | 1012.3 |
| 20260503194006 | 18 | 323 | 12.9 | 20.9 | 0.00 | 0.30 | 0.30 | 48 | 1012.1 |
| 20260503193503 | 18 | 200 | 8.0 | 11.3 | 0.00 | 0.30 | 0.30 | 46 | 1012.4 |
| 20260503192958 | 18 | 27 | 8.0 | 14.5 | 0.00 | 0.30 | 0.30 | 49 | 1012.3 |
| 20260503192454 | 17 | 248 | 8.0 | 14.5 | 0.00 | 0.30 | 0.30 | 49 | 1012.3 |
| 20260503191950 | 18 | 258 | 9.7 | 22.5 | 0.00 | 0.30 | 0.30 | 48 | 1012.5 |
| 20260503191448 | 19 | 244 | 11.3 | 20.9 | 0.00 | 0.30 | 0.30 | 48 | 1012.3 |
| 20260503190944 | 18 | 159 | 6.4 | 12.9 | 0.00 | 0.30 | 0.30 | 52 | 1012.7 |
| 20260503190442 | 17 | 5 | 8.0 | 12.9 | 0.00 | 0.30 | 0.30 | 58 | 1012.8 |
| 20260503185938 | 17 | 181 | 3.2 | 14.5 | 0.00 | 0.30 | 0.30 | 56 | 1012.8 |
| 20260503185435 | 17 | 45 | 4.8 | 11.3 | 0.00 | 0.30 | 0.30 | 59 | 1012.6 |
| 20260503184934 | 17 | 247 | 4.8 | 14.5 | 0.00 | 0.30 | 0.30 | 55 | 1012.8 |
| 20260503184431 | 16 | 219 | 9.7 | 12.9 | 0.00 | 0.30 | 0.30 | 63 | 1012.6 |
| 20260503183927 | 16 | 173 | 4.8 | 9.7 | 0.00 | 0.30 | 0.30 | 62 | 1012.6 |
| 20260503183424 | 16 | 227 | 8.0 | 12.9 | 0.00 | 0.30 | 0.30 | 61 | 1012.9 |
| 20260503182921 | 16 | 116 | 4.8 | 14.5 | 0.00 | 0.30 | 0.30 | 61 | 1013.2 |
| 20260503182420 | 15 | 209 | 8.0 | 11.3 | 0.00 | 0.30 | 0.30 | 62 | 1013.0 |
| 20260503181917 | 15 | 122 | 3.2 | 8.0 | 0.00 | 0.30 | 0.30 | 68 | 1013.2 |
| 20260503181414 | 14 | 114 | 4.8 | 11.3 | 0.00 | 0.30 | 0.30 | 66 | 1013.1 |
| 20260503180910 | 15 | 71 | 4.8 | 8.0 | 0.00 | 0.30 | 0.30 | 68 | 1013.4 |
| 20260503180408 | 14 | 150 | 4.8 | 8.0 | 0.00 | 0.30 | 0.30 | 68 | 1013.4 |
| 20260503175904 | 13 | 146 | 4.8 | 9.7 | 0.00 | 0.30 | 0.30 | 70 | 1013.4 |
| 20260503175403 | 13 | 55 | 6.4 | 11.3 | 0.00 | 0.30 | 0.30 | 72 | 1013.6 |
| 20260503174858 | 13 | 109 | 4.8 | 9.7 | 0.00 | 0.30 | 0.30 | 72 | 1013.8 |
| 20260503174356 | 12 | 222 | 1.6 | 4.8 | 0.00 | 0.30 | 0.30 | 75 | 1014.0 |
| 20260503173851 | 11 | 292 | 3.2 | 8.0 | 0.00 | 0.30 | 0.30 | 75 | 1014.1 |
| 20260503173347 | 11 | 110 | 4.8 | 11.3 | 0.00 | 0.30 | 0.30 | 76 | 1014.2 |
| 20260503172844 | 11 | 75 | 4.8 | 9.7 | 0.00 | 0.30 | 0.30 | 77 | 1014.4 |
| 20260503172342 | 11 | 184 | 4.8 | 9.7 | 0.00 | 0.30 | 0.30 | 77 | 1014.4 |
| 20260503171838 | 10 | 130 | 3.2 | 8.0 | 0.00 | 0.30 | 0.30 | 79 | 1014.3 |
| 20260503171335 | 10 | 139 | 4.8 | 8.0 | 0.00 | 0.30 | 0.30 | 81 | 1014.2 |
| 20260503170832 | 10 | 111 | 4.8 | 9.7 | 0.00 | 0.30 | 0.30 | 82 | 1014.8 |
| 20260503170328 | 10 | 117 | 3.2 | 11.3 | 0.00 | 0.30 | 0.30 | 83 | 1014.8 |
| 20260503150721 | 8 | 40 | 1.6 | 1.6 | 0.18 | 0.18 | 0.18 | 89 | 1017.3 |
| 20260503150217 | 8 | 28 | 0.0 | 1.6 | 0.30 | 0.18 | 0.18 | 87 | 1017.3 |
| 20260503140141 | 11 | 249 | 4.8 | 12.9 | 0.00 | 0.00 | 0.00 | 65 | 1017.0 |